Regional Weather Roundup
Issued by NWS

Home | Current Version | Previous Version | Text Only | Print | Product List | Glossary On
Versions: 1 2 3 4 5 6 7 8 9 10 11 12 13 14 15 16 17 18 19 20 21 22 23 24 25 26 27 28 29 30 31 32 33 34 35 36 37 38 39 40 41 42 43 44 45 46 47 48 49
000
ASUS42 KFFC 281503
RWRGA
WEATHER ROUNDUP FOR GEORGIA
NATIONAL WEATHER SERVICE PEACHTREE CITY GA
1000 AM EST SUN DEC 28 2014

NOTE: "FAIR" INDICATES FEW OR NO CLOUDS BELOW 12,000 FEET WITH NO
SIGNIFICANT WEATHER AND/OR OBSTRUCTIONS TO VISIBILITY.

* = USE WITH CAUTION. THE STATIONS MARKED WITH AN ASTERISK MAY NOT
REPORT WEATHER SUCH AS PRECIPITATION, FOG, OR THUNDER AND ARE NOT
QUALITY CONTROLLED BY NWS.

THE REMARK "TC" DENOTES TEMPERATURE READING IN DEGREES CELSIUS.

GAZ001>058-281600-
NORTH GEORGIA

CITY           SKY/WX    TMP DP  RH WIND       PRES   REMARKS
ATLANTA        CLOUDY    57  55  93 S6        30.10F FOG
ATHENS         LGT RAIN  54  53  97 CALM      30.12S FOG
CHAMBLEE       CLOUDY    55  55 100 S3        30.10S FOG
PEACHTREE CITY LGT RAIN  55  54  96 CALM      30.12R FOG
ROME           LGT RAIN  54  54 100 CALM      30.09R FOG
WEST ATLANTA   LGT RAIN  56  54  93 CALM      30.10S FOG
GAINESVILLE    CLOUDY    52  52 100 NW5       30.12R FOG
CARTERSVILLE   LGT RAIN  56  54  93 CALM      30.10S


CITY           SKY/WX    TMP DP  RH WIND       PRES   REMARKS
DALTON*        CLOUDY    54  54 100 SE3       30.10R FOG
LAWRENCEVILLE* CLOUDY    55  48  76 CALM      30.10S FOG
MARIETTA       DRIZZLE   56  56 100 S5        30.10S FOG
KENNESAW*      CLOUDY    55  52  88 CALM      30.11R FOG
$$

GAZ059>098-102>109-281600-
CENTRAL GEORGIA

CITY           SKY/WX    TMP DP  RH WIND       PRES   REMARKS
AUGUSTA-BUSH   CLOUDY    59  56  89 SE6       30.13S
AUGUSTA-DANIEL CLOUDY    60  56  86 SE8       30.13S
COLUMBUS       CLOUDY    57  56  96 CALM      30.12S
MACON          PTSUNNY   58  58 100 CALM      30.12R
ROBINS AFB     PTSUNNY   61  59  94 S3        30.12R


CITY           SKY/WX    TMP DP  RH WIND       PRES   REMARKS
LAGRANGE*      DRIZZLE   59  59  99 S3        30.11S
SYLVANIA*      CLOUDY    60  58  91 CALM      30.15F
MILLEDGEVILLE* RAIN      55  55 100 CALM      30.11F
$$

GAZ099>101-110>166-281600-
SOUTH GEORGIA

CITY           SKY/WX    TMP DP  RH WIND       PRES   REMARKS
SAVANNAH       CLOUDY    61  56  83 CALM      30.16S
VALDOSTA       FOG       63  63 100 S8        30.15S VSB 3/4
ALMA           FOG       62  62 100 S3        30.14S VSB 3/4
ST SIMONS      SUNNY     68  63  84 S5        30.16S
FT STEWART     CLOUDY    61  58  90 CALM      30.14F
ALBANY         MOSUNNY   68  60  75 SW9       30.16R
HUNTER AFB     MOSUNNY   67  62  83 W6        30.14S
MOODY AFB      PTSUNNY   65  64  97 S10       30.14S
BRUNSWICK      MOSUNNY   70  64  83 SW5       30.16S


CITY           SKY/WX    TMP DP  RH WIND       PRES   REMARKS
BAINBRIDGE*    SUNNY     73  68  83 SW10      30.14R
MOULTRIE*      MOSUNNY   64  63  94 S6        30.15R
VIDALIA*       CLOUDY    61  61 100 S3        30.14F FOG
WAYCROSS*      FOG       66  66 100 S8        30.15S VSB 1/2
DOUGLAS*       FOG       63  61  94 CALM      30.16R VSB 1/4
$$


USA.gov is the U.S. government's official web portal to all federal, state and local government web resources and services.